Location: Unspecified
(50.7693°N, 0.0000°E)
Time: 01:44:27
(UTC+00:00)

Transit 4A - Pass Details

Date: 28 June 2019
Orbit: 862 x 982 km, 66.8° (Epoch: 21 July)

Event Time Altitude Azimuth Distance (km) Brightness Sun altitude
Rises 08:10:16 0° 236° (SW) 3,640 10.6 37.7°
Reaches altitude 10° 08:12:53 10° 242° (WSW) 2,709 10.1 38.1°
Maximum altitude 08:19:04 51° 317° (NW) 1,224 8.7 39.1°
Drops below altitude 10° 08:25:20 10° 33° (NNE) 2,747 10.7 40.1°
Sets 08:28:01 0° 39° (NE) 3,694 11.3 40.5°
